EW9275 Weather Reports


time (UTC)temp
F
wind
direction
speed
knots
gust
knots
rain 1hr
in
rain 24hr
in
rain mn
in
humidity
%
barometer
mb
20260505063018 57 0.0 0.9 0.00 0.00 0.00 80 1013.1
20260505060036 59 0.0 0.9 0.00 0.00 0.00 79 1012.8
20260505053035 60 0.0 0.0 0.00 0.00 0.00 76 1012.5
20260505040016 66 0.0 0.9 0.00 0.00 0.00 65 1011.5
20260505033015 69 0.0 2.6 0.00 0.00 0.00 61 1011.0
20260505030015 72 0.0 0.9 0.00 0.00 0.00 58 1010.5
20260505023015 74 0.0 1.7 0.00 0.00 0.00 54 1010.3
20260505020018 75 0.0 1.7 0.00 0.00 0.00 52 1010.3
20260505013017 77 0.0 2.6 0.00 0.00 0.00 47 1010.2
20260505010017 78 270 0.9 3.5 0.00 0.00 0.00 44 1010.4
20260505003017 78 0.0 2.6 0.00 0.00 0.00 43 1010.2
20260505000017 79 0.0 2.6 0.00 0.00 0.00 42 1010.4
20260504233037 80 0.0 1.7 0.00 0.00 0.00 43 1010.4
20260504230017 79 270 0.9 2.6 0.00 0.00 0.00 42 1010.6
20260504223038 79 270 0.9 2.6 0.00 0.00 0.00 41 1010.9
20260504220017 78 270 0.9 3.5 0.00 0.00 0.00 40 1011.1
20260504213018 78 315 0.9 3.5 0.00 0.00 0.00 40 1011.3
20260504210017 78 270 0.9 3.5 0.00 0.00 0.00 43 1011.4
20260504203037 78 270 0.9 3.5 0.00 0.00 0.00 43 1011.5
20260504200057 77 0.0 1.7 0.00 0.00 0.00 43 1011.8
20260504193017 75 270 0.9 2.6 0.00 0.00 0.00 48 1011.9
20260504190017 73 0.0 3.5 0.00 0.00 0.00 48 1012.1
20260504183018 73 0.0 2.6 0.00 0.00 0.00 52 1012.4
20260504180016 71 0.0 2.6 0.00 0.00 0.00 54 1012.4
20260504173017 68 0.0 2.6 0.00 0.00 0.00 60 1012.4